{"data":{"norad_id":63802,"epoch":"2026-05-24T20:25:49.791936Z","epoch_age_seconds":101646,"freshness":"FRESH","line1":"1 63802U 25091AC  26144.85127074  .00014992  00000+0  55301-3 0  9998","line2":"2 63802  43.0013 342.0952 0001629 277.5488  82.5178 15.27591099 60663","mean_motion":15.27591099,"eccentricity":0.0001629,"inclination_deg":43.0013,"raan_deg":342.0952,"arg_perigee_deg":277.5488,"mean_anomaly_deg":82.5178,"bstar":0.00055301,"rev_number":6066,"period_min":94.266063800886,"perigee_km":481.89818004084,"apogee_km":484.13354364323,"semimajor_km":6861.152861842,"source":"CELESTRAK","updated_at":"2026-05-25T13:38:20.138529Z"}}